Snowfall_Accumulation
0.0 0.0 0.0 0.0 0.0 0.0 0.0 0.0 0.0 0.0 0.0 0.0 0.0 0.0 0.0 0.0 0.0 0.0 0.0 0.0 0.0 0.0 0.0 0.0 0.0 0.0 0.0 0.0 0.0 0.0 0.0 0.0 0.0 0.0 0.0 0.0 0.0 0.0 0.0 0.0 0.0 0.0 0.0 0.0 0.0 0.0 0.0 0.0 0.0
0.0 0.0 0.0 0.0 0.0 0.3 0.0 0.0 0.0 0.0 0.0 0.0 0.0 0.0 0.0 0.0 0.0 0.0 0.0 0.0 0.0 0.0 0.0 0.0 0.0 0.0 0.0 0.0 0.0 0.0 0.0 0.0 0.0 0.0 0.0 0.0 0.0 0.0 0.0 0.0 0.0 0.0 0.0 0.0 0.0 0.0 0.0 0.0 0.0
0.0 0.0 0.0 0.0 0.1 0.4 0.0 0.0 0.0 0.0 0.0 0.0 0.0 0.0 0.0 0.0 0.0 0.0 0.0 0.0 0.0 0.0 0.0 0.0 0.0 0.0 0.0 0.0 0.0 0.0 0.0 0.0 0.0 0.0 0.0 0.0 0.0 0.0 0.0 0.0 0.0 0.0 0.0 0.0 0.0 0.0 0.0 0.0 0.0
0.0 0.0 0.0 0.0 0.2 0.0 0.0 0.0 0.0 0.0 0.0 0.0 0.0 0.0 0.0 0.0 0.0 0.0 0.0 0.0 0.0 0.0 0.0 0.0 0.0 0.0 0.0 0.0 0.0 0.0 0.0 0.0 0.0 0.0 0.0 0.0 0.0 0.0 0.0 0.0 0.0 0.0 0.0 0.0 0.0 0.0 0.0 0.0 0.0
0.0 0.0 0.0 0.1 0.1 0.0 0.0 0.0 0.0 0.0 0.0 0.0 0.0 0.0 0.0 0.0 0.0 0.0 0.0 0.0 0.0 0.0 0.0 0.0 0.0 0.0 0.0 0.0 0.0 0.0 0.0 0.0 0.0 0.0 0.0 0.0 0.0 0.0 0.0 0.0 0.0 0.0 0.0 0.0 0.0 0.0 0.0 0.0 0.0
0.0 0.0 0.3 0.8 0.1 0.0 0.0 0.0 0.0 0.0 0.0 0.0 0.0 0.0 0.0 0.0 0.0 0.0 0.0 0.0 0.0 0.0 0.0 0.0 0.0 0.0 0.0 0.0 0.0 0.0 0.0 0.0 0.0 0.0 0.0 0.0 0.0 0.0 0.0 0.0 0.0 0.0 0.0 0.0 0.0 0.0 0.0 0.0 0.0
0.0 0.1 0.4 0.4 0.2 0.0 0.0 0.0 0.0 0.0 0.0 0.0 0.0 0.0 0.0 0.0 0.0 0.0 0.0 0.0 0.0 0.0 0.0 0.0 0.0 0.0 0.0 0.0 0.0 0.0 0.0 0.0 0.0 0.0 0.0 0.0 0.0 0.0 0.0 0.0 0.0 0.0 0.0 0.0 0.0 0.0 0.0 0.0 0.0
0.0 0.2 0.4 0.2 0.2 0.1 0.0 0.0 0.0 0.0 0.0 0.0 0.0 0.0 0.0 0.0 0.0 0.0 0.0 0.0 0.0 0.0 0.0 0.0 0.0 0.0 0.0 0.0 0.0 0.0 0.0 0.0 0.0 0.0 0.0 0.0 0.0 0.0 0.0 0.0 0.0 0.0 0.0 0.0 0.0 0.0 0.0 0.0 0.0
0.0 0.3 1.1 0.4 0.2 0.0 0.0 0.0 0.0 0.0 0.0 0.0 0.0 0.0 0.0 0.0 0.0 0.0 0.0 0.0 0.0 0.0 0.0 0.0 0.0 0.0 0.0 0.0 0.0 0.0 0.0 0.0 0.0 0.0 0.0 0.0 0.0 0.0 0.0 0.0 0.0 0.0 0.0 0.0 0.0 0.0 0.0 0.0 0.0
0.2 0.9 0.3 0.1 0.1 0.1 0.1 0.1 0.1 0.0 0.0 0.0 0.0 0.0 0.0 0.0 0.0 0.0 0.0 0.0 0.0 0.0 0.0 0.0 0.0 0.0 0.0 0.0 0.0 0.0 0.0 0.0 0.0 0.0 0.0 0.0 0.0 0.0 0.0 0.0 0.0 0.0 0.0 0.0 0.0 0.0 0.0 0.0 0.0
0.2 0.3 0.1 0.1 0.1 0.1 0.1 0.1 0.1 0.1 0.1 0.1 0.0 0.0 0.0 0.0 0.0 0.0 0.0 0.0 0.0 0.0 0.0 0.0 0.0 0.0 0.0 0.0 0.0 0.0 0.0 0.0 0.0 0.0 0.0 0.0 0.0 0.0 0.0 0.0 0.0 0.0 0.0 0.0 0.0 0.0 0.0 0.0 0.0
0.3 0.1 0.1 0.2 0.1 0.1 0.2 0.1 0.1 0.2 0.3 0.2 0.1 0.0 0.0 0.0 0.0 0.0 0.0 0.0 0.0 0.0 0.0 0.0 0.0 0.0 0.0 0.0 0.0 0.0 0.0 0.0 0.0 0.0 0.0 0.0 0.0 0.0 0.0 0.0 0.0 0.0 0.0 0.0 0.0 0.0 0.0 0.0 0.0
0.2 0.2 0.1 0.1 0.1 0.1 0.2 0.3 0.2 0.3 0.3 0.2 0.1 0.0 0.0 0.0 0.0 0.0 0.0 0.0 0.0 0.0 0.0 0.0 0.0 0.0 0.0 0.0 0.0 0.0 0.0 0.0 0.0 0.0 0.0 0.0 0.0 0.0 0.0 0.0 0.0 0.0 0.0 0.0 0.0 0.0 0.0 0.0 0.0
0.1 0.0 0.1 0.1 0.1 0.1 0.2 0.5 0.4 0.5 0.2 0.1 0.1 0.1 0.1 0.0 0.0 0.0 0.0 0.0 0.1 0.0 0.0 0.1 0.0 0.0 0.0 0.0 0.0 0.0 0.0 0.0 0.0 0.0 0.0 0.0 0.0 0.0 0.0 0.0 0.0 0.0 0.0 0.0 0.0 0.0 0.0 0.0 0.0
0.1 0.1 0.1 0.0 0.0 0.0 0.1 0.4 0.6 0.5 0.2 0.1 0.2 0.1 0.1 0.1 0.1 0.0 0.0 0.0 0.1 0.1 0.0 0.1 0.1 0.1 0.1 0.0 0.1 0.1 0.1 0.0 0.0 0.0 0.0 0.0 0.0 0.0 0.0 0.0 0.0 0.0 0.0 0.0 0.0 0.0 0.0 0.0 0.0
0.3 0.8 1.2 0.1 0.0 0.0 0.5 1.4 0.5 0.3 0.2 0.2 0.2 0.2 0.2 0.2 0.1 0.1 0.1 0.1 0.1 0.0 0.0 0.0 0.1 0.1 0.1 0.1 0.1 0.1 0.1 0.1 0.1 0.1 0.1 0.1 0.1 0.0 0.0 0.0 0.0 0.0 0.0 0.0 0.0 0.0 0.0 0.0 0.0
4.1 5.4 3.4 1.0 0.1 0.2 0.6 0.9 0.4 0.3 0.3 0.3 0.3 0.2 0.2 0.2 0.2 0.2 0.1 0.2 0.1 0.1 0.1 0.1 0.1 0.1 0.1 0.1 0.1 0.1 0.1 0.2 0.1 0.1 0.1 0.1 0.1 0.1 0.1 0.0 0.0 0.0 0.0 0.0 0.0 0.0 0.0 0.0 0.0
5.2 3.9 2.3 1.7 0.5 0.5 0.9 0.8 0.4 0.3 0.3 0.5 0.4 0.3 0.3 0.3 0.3 0.2 0.2 0.2 0.2 0.2 0.1 0.1 0.1 0.1 0.2 0.1 0.1 0.1 0.1 0.1 0.2 0.2 0.1 0.1 0.1 0.1 0.1 0.1 0.0 0.0 0.0 0.0 0.0 0.0 0.0 0.0 0.0
2.8 2.9 2.5 1.1 0.6 1.0 1.2 1.2 0.6 0.3 0.3 0.3 0.4 0.5 0.5 0.4 0.3 0.2 0.2 0.2 0.2 0.2 0.2 0.2 0.2 0.1 0.2 0.2 0.1 0.1 0.1 0.1 0.2 0.2 0.2 0.2 0.2 0.1 0.2 0.1 0.0 0.0 0.0 0.0 0.1 0.0 0.1 0.0 0.0
3.2 3.7 2.8 1.4 0.7 1.6 1.7 1.6 0.6 0.4 0.5 0.5 0.3 0.3 0.4 0.3 0.3 0.2 0.1 0.1 0.2 0.1 0.2 0.2 0.2 0.2 0.2 0.2 0.3 0.2 0.3 0.2 0.1 0.2 0.2 0.3 0.4 0.2 0.2 0.2 0.1 0.1 0.1 0.0 0.1 0.1 0.1 0.0 0.0
3.7 3.2 2.9 3.3 1.9 1.3 2.9 2.9 1.8 0.9 0.6 0.6 0.4 0.3 0.2 0.3 0.3 0.3 0.2 0.1 0.2 0.3 0.2 0.3 0.3 0.3 0.3 0.2 0.2 0.3 0.4 0.3 0.2 0.2 0.2 0.3 0.4 0.4 0.4 0.2 0.2 0.2 0.1 0.1 0.1 0.1 0.2 0.3 0.0
4.8 1.3 1.8 3.1 5.3 7.2 5.5 11.1 3.7 1.8 1.1 1.0 0.7 0.7 0.5 0.4 0.4 0.2 0.2 0.1 0.1 0.2 0.3 0.3 0.3 0.4 0.4 0.2 0.3 0.4 0.5 0.5 0.3 0.4 0.4 0.3 0.4 0.5 0.6 0.4 0.2 0.3 0.2 0.2 0.1 0.1 0.3 0.3 0.5
3.1 0.8 1.7 3.0 6.6 9.5 5.1 10.1 6.3 2.7 2.1 2.0 1.4 1.0 0.7 0.5 0.6 0.5 0.3 0.1 0.1 0.1 0.2 0.2 0.2 0.3 0.4 0.4 0.4 0.5 0.6 0.6 0.6 0.5 0.4 0.3 0.4 0.5 0.6 0.7 0.3 0.3 0.3 0.2 0.3 0.3 0.3 0.3 0.4
1.3 1.6 2.1 3.4 9.0 15.5 6.6 8.9 8.1 5.5 4.1 2.3 1.5 1.3 0.9 0.9 0.5 0.4 0.3 0.2 0.1 0.1 0.1 0.2 0.2 0.2 0.3 0.3 0.3 0.4 0.5 0.6 0.6 0.6 0.7 0.4 0.4 0.4 0.6 0.7 0.5 0.3 0.4 0.3 0.3 0.3 0.4 0.3 0.3
3.3 11.3 21.7 21.7 20.6 12.0 5.0 7.4 9.0 3.9 2.6 2.4 2.1 1.7 1.3 1.3 0.9 0.6 0.4 0.3 0.2 0.1 0.1 0.2 0.2 0.3 0.3 0.3 0.3 0.3 0.3 0.5 0.6 0.7 0.9 0.8 0.5 0.5 0.5 0.7 0.8 0.7 0.5 0.4 0.4 0.5 0.5 0.5 0.4
4.1 8.1 16.7 15.9 11.0 7.1 5.8 7.8 8.1 3.3 2.7 2.3 2.0 1.8 1.5 1.3 1.3 1.1 0.8 0.4 0.2 0.2 0.1 0.2 0.2 0.2 0.2 0.3 0.3 0.2 0.3 0.3 0.4 0.6 0.8 1.1 0.8 0.7 0.5 0.5 0.6 0.8 0.5 0.5 0.4 0.5 0.5 0.6 0.5
5.9 7.9 6.5 12.5 9.3 8.1 7.9 7.1 5.1 2.1 2.1 2.2 1.8 1.6 1.4 1.5 1.3 1.4 1.2 0.8 0.4 0.4 0.3 0.2 0.2 0.2 0.2 0.2 0.2 0.3 0.3 0.3 0.3 0.4 0.7 0.9 1.0 0.7 0.6 0.7 0.6 0.6 0.8 0.4 0.5 0.7 0.6 0.5 0.7
2.9 5.1 10.5 17.2 15.0 10.8 7.4 6.8 8.3 5.1 3.8 2.8 2.3 1.9 1.6 1.4 1.4 1.3 1.3 1.1 0.7 0.7 0.6 0.4 0.2 0.2 0.3 0.3 0.3 0.2 0.4 0.2 0.3 0.3 0.4 0.8 0.5 0.7 0.6 0.7 0.8 0.7 0.7 0.5 0.5 0.5 0.5 0.6 0.7
5.0 8.0 11.1 13.3 11.9 11.8 9.0 9.1 7.5 5.6 3.8 3.1 2.5 2.2 2.0 1.7 1.7 1.7 1.3 1.3 1.1 0.9 0.9 0.8 0.4 0.2 0.2 0.3 0.4 0.3 0.4 0.4 0.2 0.3 0.3 0.4 0.4 0.5 0.6 0.6 0.7 0.8 0.8 0.5 0.5 0.5 0.5 0.5 0.6
3.3 6.5 9.6 15.1 11.2 8.9 9.4 9.5 4.7 3.9 3.4 3.3 2.9 2.7 2.5 2.3 2.0 1.9 1.6 1.4 1.3 1.2 1.1 1.0 0.9 0.5 0.5 0.3 0.3 0.4 0.4 0.7 0.5 0.3 0.3 0.4 0.3 0.4 0.5 0.5 0.6 0.7 0.8 0.8 0.6 0.7 0.5 0.6 0.6